This is the latest recevied weather packets stored in our database for station/object KD4IZ-13. If no packets are shown the sender has not sent any weather packets the latest 10 day(s).
| Time | Temp. | Humidity | Pressure | Rain* | Wind** | Luminosity | Snow |
|---|---|---|---|---|---|---|---|
| 1778130664 | 11.11° C | 99% | 1012.8 hPa | 0 mm | - | 0 W/m² | - |
| 1778130361 | 11.11° C | 99% | 1013.1 hPa | 0 mm | - | 0 W/m² | - |
| 1778130057 | 11.11° C | 99% | 1012.7 hPa | 0 mm | - | 0 W/m² | - |
| 1778129754 | 11.67° C | 99% | 1012.7 hPa | 0 mm | - | 0 W/m² | - |
| 1778129451 | 11.67° C | 99% | 1013 hPa | 0 mm | - | 0 W/m² | - |
| 1778129148 | 11.67° C | 99% | 1012.8 hPa | 0 mm | - | 0 W/m² | - |
| 1778128845 | 11.67° C | 99% | 1013.1 hPa | 0 mm | - | 0 W/m² | - |
| 1778128540 | 11.67° C | 99% | 1012.6 hPa | 0 mm | - | 0 W/m² | - |
| 1778128238 | 11.67° C | 99% | 1012.5 hPa | 0 mm | - | 0 W/m² | - |
| 1778127933 | 11.67° C | 99% | 1012.4 hPa | 0 mm | - | 0 W/m² | - |
| 1778127629 | 11.67° C | 99% | 1012.3 hPa | 1.27 mm | - | 0 W/m² | - |
| 1778127326 | 12.22° C | 99% | 1012.6 hPa | 3.05 mm | - | 0 W/m² | - |
| 1778127024 | 12.22° C | 99% | 1012.5 hPa | 1.78 mm | - | 0 W/m² | - |
| 1778126719 | 12.78° C | 99% | 1012 hPa | 0 mm | - | 0 W/m² | - |
| 1778126416 | 12.78° C | 99% | 1012.2 hPa | 0 mm | - | 0 W/m² | - |
| 1778126112 | 12.78° C | 99% | 1012.2 hPa | 0 mm | - | 0 W/m² | - |
| 1778125809 | 13.33° C | 99% | 1011.9 hPa | 0 mm | - | 0 W/m² | - |
| 1778125506 | 13.33° C | 99% | 1011.9 hPa | 1.27 mm | - | 0 W/m² | - |
| 1778125204 | 13.33° C | 99% | 1011.8 hPa | 1.27 mm | - | 0 W/m² | - |
| 1778124901 | 13.33° C | 98% | 1011.6 hPa | 0 mm | - | 0 W/m² | - |
| 1778124598 | 13.89° C | 98% | 1011.7 hPa | 1.78 mm | - | 0 W/m² | - |
| 1778124295 | 13.89° C | 97% | 1012.2 hPa | 3.56 mm | - | 0 W/m² | - |
| 1778123991 | 13.89° C | 96% | 1012 hPa | 1.78 mm | - | 0 W/m² | - |
| 1778123687 | 13.89° C | 96% | 1012 hPa | 0 mm | - | 0 W/m² | - |
| 1778123385 | 13.89° C | 95% | 1011.7 hPa | 0 mm | - | 0 W/m² | - |
* Rain latest hour (hover to see other rain measurements)
** Current wind speed in m/s (hover to see current wind gust speed)